Карточка аэропорта UAII

Внимание!
Информация на этой странице в стадии наполнения.
Если вы не увидели какой-то информации, или заметили неточность - пожалуйста сообщите нам!
Спасибо!
Команда RU-STAFF
Название аэропортаШымкент
Название аэропорта (англ.)Shymkent
Превышение1389 ft. (423.4 m.)
Координаты42°21.348', 69°28.734'
Высота перехода10000ft
Эшелон переходаFL120, QNH<733:FL130
Коды ответчика3430-3437, 3530-3537
Зона ОрВДШымкент РПИ (UAII)
Данные METARUAII 270530Z 26004MPS CAVOK 20/01 Q1020 NOSIG RMK QFE729/0973
Проноз погоды (TAF)UAII 270459Z 2706/2806 27003G08MPS 7000 NSC TX25/2710Z TN11/2801Z TEMPO 2706/2715 32007G12MPS SCT050CB TEMPO 2715/2721 20003G08MPS TEMPO 2721/2804 15003G08MPS
NOTAMshow/hide NOTAM
AWOS   TABLE

Информация о ВПП

ВПП Длина ВПП (м.) Покрытие Курс ВПП Частота ILS
283300Железобетон286110.3
103300Железобетон106111.7

Диспетчерские позиции

Позывной Наименование органа УВД Частота
UAII_TWRШымкент Вышка125.9
UAII_APPШымкент-Подход120.3



Спутниковое изображение